North Island, CA

12:54 PM PDT on August 21, 2017 (GMT -0700)
North Island Naval Air Station

Weather History for KNZY - February, 2013

Change the Weather History Date:

Sunday, February 3, 2013

  Actual Average Record
Temperature  
Mean Temperature 63 °F -  
Max Temperature 71 °F 61 °F 84 °F (2009)
Min Temperature 55 °F 48 °F 41 °F (2016)
Degree Days  
Heating Degree Days 2    
Growing Degree Days 13 (Base 50)    
Moisture  
Dew Point 51 °F    
Average Humidity 65    
Maximum Humidity 87    
Minimum Humidity 45    
Precipitation  
Precipitation 0.00 in - - ()
Sea Level Pressure  
Sea Level Pressure 30.07 in    
Wind  
Wind Speed 6 mph (NNW)    
Max Wind Speed 14 mph    
Max Gust Speed -    
Visibility 9 miles    
Events Rain    
Averages and records for this station are not official NWS values.
T = Trace of Precipitation, MM = Missing Value Source: NWS Daily Summary

Daily Weather History Graph

Daily Weather History Graph

Search for Another Location

Airport or City:

Trip Planner

Search our weather history database for the weather conditions in past years. The results will help you decide how hot, cold, wet, or windy it might be!

Date:

Astronomy

Feb. 03, 2013 Rise Set
Actual Time 6:41 AM PST 5:23 PM PST
Civil Twilight 6:16 AM PST 5:49 PM PST
Nautical Twilight 5:46 AM PST 6:18 PM PST
Astronomical Twilight 5:17 AM PST 6:47 PM PST
Moon 12:13 AM PST (2/3) 11:06 AM PST (2/3)
Length of Visible Light 11h 33m
Length of Day
10h 41m
Waning Gibbous, 47% of the Moon is Illuminated
Feb 3
Waning Gibbous
Feb 9
New
Feb 17
First Quarter
Feb 25
Full
Mar 4
Last Quarter

Hourly Weather History & Observations

Time (PST) Temp. Dew Point Humidity Pressure Visibility Wind Dir Wind Speed Gust Speed Precip Events Conditions
12:52 AM 62.1 °F 52.0 °F 70% 30.11 in 10.0 mi NNW 5.8 mph - N/A   Overcast
1:09 AM 62.6 °F 50.0 °F 63% 30.11 in 9.0 mi North 8.1 mph - 0.00 in Rain Light Rain
1:36 AM 62.6 °F 50.0 °F 63% 30.12 in 10.0 mi NNW 9.2 mph - 0.00 in   Overcast
1:52 AM 63.0 °F 50.0 °F 63% 30.11 in 9.0 mi North 9.2 mph - 0.00 in   Overcast
2:10 AM 62.6 °F 50.0 °F 63% 30.10 in 9.0 mi North 9.2 mph - 0.00 in Rain Light Rain
2:27 AM 62.6 °F 51.8 °F 68% 30.10 in 9.0 mi North 4.6 mph - 0.00 in   Overcast
2:52 AM 62.1 °F 51.1 °F 67% 30.09 in 9.0 mi NE 3.5 mph - 0.00 in Rain Light Rain
3:25 AM 62.6 °F 51.8 °F 68% 30.09 in 9.0 mi NE 4.6 mph - 0.00 in   Overcast
3:52 AM 62.1 °F 52.0 °F 70% 30.09 in 9.0 mi North 5.8 mph - 0.00 in   Overcast
4:52 AM 64.0 °F 51.1 °F 63% 30.08 in 10.0 mi North 5.8 mph - N/A   Overcast
5:52 AM 61.0 °F 51.1 °F 70% 30.07 in 10.0 mi Calm Calm - N/A   Mostly Cloudy
6:52 AM 61.0 °F 50.0 °F 67% 30.08 in 8.0 mi South 3.5 mph - N/A   Mostly Cloudy
7:52 AM 62.1 °F 51.1 °F 67% 30.09 in 8.0 mi Calm Calm - N/A   Mostly Cloudy
8:52 AM 64.9 °F 51.1 °F 61% 30.09 in 8.0 mi NW 5.8 mph - N/A   Mostly Cloudy
9:52 AM 71.1 °F 51.1 °F 49% 30.08 in 9.0 mi North 4.6 mph - N/A   Mostly Cloudy
10:52 AM 70.0 °F 48.0 °F 46% 30.08 in 10.0 mi NW 11.5 mph - N/A   Mostly Cloudy
11:52 AM 71.1 °F 48.9 °F 45% 30.06 in 10.0 mi NW 10.4 mph - N/A   Mostly Cloudy
12:52 PM 70.0 °F 50.0 °F 49% 30.04 in 9.0 mi WNW 13.8 mph - N/A   Mostly Cloudy
1:52 PM 66.0 °F 52.0 °F 60% 30.03 in 8.0 mi WNW 12.7 mph - N/A   Mostly Cloudy
2:52 PM 68.0 °F 50.0 °F 52% 30.02 in 8.0 mi NW 9.2 mph - N/A   Mostly Cloudy
3:52 PM 66.9 °F 50.0 °F 54% 30.02 in 10.0 mi NNW 8.1 mph - N/A   Overcast
4:52 PM 63.0 °F 51.1 °F 65% 30.03 in 10.0 mi NNW 3.5 mph - N/A   Mostly Cloudy
5:52 PM 60.1 °F 53.1 °F 78% 30.03 in 10.0 mi West 5.8 mph - N/A   Mostly Cloudy
6:04 PM - - N/A% - - North - - N/A   Unknown
6:52 PM 60.1 °F 53.1 °F 78% 30.04 in 9.0 mi NW 4.6 mph - N/A   Scattered Clouds
7:52 PM 61.0 °F 51.1 °F 70% 30.05 in 9.0 mi Calm Calm - N/A   Scattered Clouds
8:52 PM 59.0 °F 52.0 °F 78% 30.05 in 8.0 mi NNE 3.5 mph - N/A   Mostly Cloudy
9:52 PM 55.9 °F 50.0 °F 80% 30.06 in 8.0 mi Calm Calm - N/A   Mostly Cloudy
10:52 PM 57.0 °F 52.0 °F 83% 30.06 in 5.0 mi West 3.5 mph - N/A   Mostly Cloudy
11:00 PM - - N/A% - - North - - N/A   Unknown
11:52 PM 57.0 °F 53.1 °F 87% 30.05 in 4.0 mi North 3.5 mph - N/A   Mostly Cloudy